Theta_e
325 319 316 316 311 313 310 305 301 298 294 290 286 292 295 294 295 296 297 296 298 297 297 295 296 300 301 300 300 299 299 298 297 297 301 310 312 316 323 331 328 330 336 339 344 347 350 348 351 354 355 355 355 355 354 354 353 352 351 351 350 349 348 347 348 348 348 349 349 349 348 348 347 348 348 348 348 349 348 348 348 348 347 347 346 347 346 347 346 345 344 342 339 338 336 335 334
319 317 313 314 315 314 310 299 293 289 289 288 292 287 291 291 295 294 296 297 299 301 296 295 297 296 295 296 296 300 300 300 300 305 306 308 311 314 317 328 328 333 336 340 344 346 349 352 349 353 355 355 355 355 354 353 353 352 351 350 349 349 348 347 348 348 348 349 348 348 348 348 348 348 347 348 347 348 348 348 348 348 347 346 346 346 345 347 345 343 342 340 338 336 335 333 332
317 316 316 311 313 307 303 300 300 284 288 287 290 291 291 294 295 295 294 296 298 297 293 295 296 298 301 300 301 300 303 301 298 299 303 309 312 311 319 327 329 334 337 341 344 346 349 349 346 352 355 355 355 354 354 353 352 352 351 350 350 349 347 347 348 348 349 348 348 348 347 348 348 348 347 347 348 348 348 348 347 347 347 346 345 346 345 345 344 342 340 338 336 333 333 332 331
315 316 312 309 310 302 297 292 288 287 287 286 288 291 289 294 293 293 294 294 294 293 296 301 302 302 302 298 302 300 299 303 302 306 306 314 313 313 322 327 330 334 338 342 344 346 348 346 345 352 354 355 355 354 354 353 352 352 351 350 350 349 347 348 348 348 348 348 348 347 347 347 347 347 347 347 347 347 347 347 346 345 345 345 345 345 344 344 343 341 339 337 335 332 331 331 332
315 317 308 306 303 302 294 290 287 287 289 286 291 291 290 292 294 292 294 292 292 293 298 300 299 301 302 302 300 302 304 305 307 305 310 312 314 315 323 329 332 335 338 341 343 345 348 343 344 350 354 355 354 354 353 353 352 352 351 351 350 349 347 348 348 348 348 347 348 346 346 346 347 347 346 346 346 347 347 346 346 346 345 344 344 343 342 341 340 340 338 336 335 332 330 329 331
310 310 309 309 306 301 296 293 292 292 291 289 290 297 293 291 293 293 294 295 295 293 297 297 301 302 301 301 300 304 301 306 309 307 311 317 317 319 327 332 334 335 337 340 342 345 347 341 343 349 354 354 354 354 353 353 352 352 352 351 350 348 348 348 348 348 348 347 348 348 348 347 347 346 346 346 346 346 346 346 345 345 344 343 341 341 342 341 340 338 337 336 334 331 329 329 328
312 307 303 306 301 299 294 287 290 289 297 291 295 292 293 293 291 292 295 298 297 297 295 301 296 299 300 299 301 302 302 308 313 314 314 319 317 322 329 333 334 334 336 339 342 344 345 340 345 350 351 352 354 354 353 353 352 352 351 350 349 349 348 348 348 348 348 347 349 349 349 348 348 348 346 346 346 346 346 345 344 344 343 343 342 342 341 341 340 338 337 334 333 330 328 328 327
311 308 301 298 294 293 290 287 291 290 296 290 294 293 292 291 289 292 294 296 298 300 298 293 295 300 301 298 301 304 300 302 313 310 313 316 316 326 330 332 332 332 335 337 340 343 339 339 344 348 350 352 352 353 353 353 352 352 351 350 349 349 347 347 348 348 348 348 349 349 349 348 347 347 346 346 346 346 345 344 344 343 342 342 342 342 342 341 340 338 336 334 331 328 327 326 327
305 304 297 300 292 288 287 292 292 290 291 291 293 293 300 298 294 295 296 295 296 295 294 298 298 298 297 298 300 302 302 304 304 308 317 317 322 327 330 331 330 331 335 337 339 341 343 338 341 346 347 351 352 353 353 353 352 352 351 351 350 348 347 347 348 349 349 348 349 348 348 348 348 347 346 346 346 346 345 344 343 342 342 341 341 340 340 339 339 337 335 333 329 326 325 325 326
305 302 297 294 291 291 285 291 292 294 292 293 292 294 292 292 292 293 296 296 298 295 297 295 296 300 298 300 298 306 307 303 302 317 320 317 323 328 330 330 329 332 334 337 339 341 342 336 337 342 344 349 351 353 353 352 352 352 351 351 350 349 348 348 349 350 349 349 349 349 348 347 347 347 346 346 345 345 345 344 343 343 341 340 339 338 338 338 337 335 333 331 327 325 324 324 323
299 296 294 293 285 286 289 288 286 290 291 291 292 293 294 292 293 294 293 295 293 295 296 294 299 299 297 299 300 305 303 300 312 315 318 317 323 328 330 326 329 333 334 337 339 341 342 343 334 338 341 343 347 350 350 350 351 351 350 350 350 349 348 348 349 349 350 350 350 348 347 347 347 347 346 345 345 345 345 344 343 342 341 339 338 336 336 337 335 334 332 329 326 325 324 323 322
298 293 291 284 286 288 286 287 287 289 291 290 297 295 295 293 293 297 296 297 294 292 295 296 300 298 298 295 304 305 301 304 303 306 310 314 321 321 329 324 327 332 335 336 338 340 341 342 342 337 336 339 341 345 347 348 349 349 349 349 349 348 348 348 348 348 349 349 349 349 347 346 346 345 345 345 344 343 344 343 342 342 340 338 337 336 334 337 336 333 331 328 326 324 323 321 322
295 289 288 286 287 287 285 287 288 292 289 292 296 296 291 293 296 295 295 292 291 294 298 297 299 299 299 301 303 297 302 301 302 307 310 315 318 317 318 321 326 330 334 335 337 338 340 341 342 343 340 334 336 338 340 343 345 347 348 348 348 347 347 347 347 347 348 347 348 347 346 345 344 345 345 343 344 343 342 342 343 340 337 336 336 336 336 336 334 331 329 328 325 324 322 320 321
296 291 291 288 284 285 286 290 288 292 291 294 291 291 292 295 295 295 293 296 295 296 298 297 298 298 301 297 297 294 297 301 301 310 312 316 315 317 318 318 324 327 330 334 335 337 338 339 341 343 344 344 346 339 335 337 341 344 345 345 344 344 345 345 345 344 345 345 344 342 341 339 341 342 343 343 343 342 342 341 341 338 337 337 336 336 336 336 333 331 329 327 326 323 321 320 320
301 292 288 286 283 287 286 292 291 287 294 295 296 293 293 297 292 290 297 292 298 295 296 297 302 300 295 296 296 300 301 301 307 310 314 315 317 316 317 318 319 323 327 330 333 335 336 338 340 342 343 344 345 346 346 343 335 339 341 341 340 341 342 341 341 341 340 340 340 338 337 334 334 335 336 338 340 337 335 334 340 339 338 337 337 336 336 334 332 330 329 327 325 323 320 319 319
296 291 287 289 286 285 289 288 285 288 295 291 294 290 291 296 293 297 296 297 298 299 295 301 299 300 298 298 301 299 299 302 309 312 317 316 314 316 317 318 318 318 321 327 331 332 335 336 339 341 342 343 344 345 346 346 335 333 337 338 338 338 338 338 337 338 333 331 331 331 330 334 331 335 328 337 332 334 331 334 334 338 339 337 337 336 335 334 332 330 328 327 325 322 318 317 318
295 293 290 283 288 286 288 289 289 292 291 291 291 292 296 295 294 293 295 296 298 297 292 296 301 298 297 300 298 297 300 308 311 311 312 313 312 314 315 315 315 318 320 325 327 330 332 335 337 339 341 342 344 344 345 345 344 330 334 332 332 333 334 334 335 331 325 322 325 326 326 340 340 339 337 341 326 336 324 326 331 336 338 337 337 335 334 333 331 330 328 327 323 318 314 312 310
292 287 284 287 285 286 288 291 290 294 294 295 293 291 295 293 294 298 296 294 291 292 294 295 296 296 298 297 295 295 298 303 307 309 308 309 309 311 312 313 313 315 315 317 323 329 331 333 335 337 339 341 343 344 344 344 344 337 343 343 341 338 333 329 334 339 330 338 324 330 338 340 340 339 337 332 336 332 330 324 326 331 335 334 334 335 334 333 331 329 328 326 321 315 308 305 303
288 286 288 289 284 290 291 291 291 293 295 292 292 289 293 295 294 295 296 295 292 295 296 294 294 296 296 296 296 297 297 298 301 302 302 302 304 304 304 307 307 309 311 315 318 322 329 332 334 335 338 340 341 343 343 344 344 343 344 343 343 336 337 336 339 336 338 338 337 338 336 340 340 339 337 333 333 324 330 322 325 329 332 331 331 333 334 333 331 329 328 323 316 310 305 303 301
292 291 289 285 287 289 289 290 294 292 294 295 293 292 291 295 295 295 297 294 293 294 297 295 294 296 295 294 296 297 298 297 298 298 298 298 299 299 299 300 301 303 303 306 308 314 320 329 332 334 336 339 340 342 343 343 343 341 343 345 343 342 343 342 340 339 337 336 339 338 337 338 339 339 328 324 324 331 327 320 323 323 324 325 324 329 330 331 330 329 325 318 310 304 302 300 300
295 291 287 291 289 293 294 290 292 291 292 294 292 291 293 294 292 295 293 295 296 295 295 296 297 296 294 295 296 297 297 297 297 297 297 298 298 299 299 299 300 301 302 303 306 308 310 320 330 332 335 338 339 340 341 343 343 343 342 341 343 343 341 339 339 337 337 338 336 337 338 336 337 337 333 331 330 327 329 332 332 332 332 330 322 329 330 331 326 321 316 310 308 306 303 301 301
294 294 291 292 289 293 294 291 290 292 289 292 289 293 297 294 293 293 294 294 295 296 297 295 294 293 295 296 296 296 296 296 296 296 296 297 297 297 299 300 301 302 302 303 304 305 307 310 321 331 334 336 338 339 340 341 342 341 342 342 340 341 340 341 340 338 336 337 337 337 337 337 336 335 333 332 332 330 327 326 328 329 328 328 325 324 325 326 321 317 314 311 306 306 304 304 304
295 289 290 290 290 295 294 291 291 291 293 292 293 294 293 292 293 291 293 295 296 292 292 294 294 294 296 296 295 295 295 295 295 295 296 296 296 297 298 299 300 301 302 304 306 308 308 308 313 327 332 335 336 338 340 340 340 342 342 341 342 341 340 338 337 338 338 338 337 336 336 334 333 335 334 332 332 331 329 328 328 327 327 325 324 325 323 324 321 316 313 308 305 307 306 304 303
293 293 290 295 290 295 293 296 290 291 292 293 292 291 294 292 294 291 293 293 292 292 296 296 295 296 296 295 294 294 294 294 294 295 296 296 296 297 298 298 300 302 305 307 308 309 310 310 309 319 330 334 335 337 338 339 339 340 341 339 341 339 340 339 337 337 338 338 338 336 335 335 334 332 333 332 327 327 328 328 328 327 325 322 320 326 324 319 317 316 312 307 306 306 308 305 303
293 292 290 293 290 291 291 289 288 288 291 292 290 292 294 292 292 292 294 293 291 293 295 295 295 295 294 294 293 294 293 294 294 295 296 297 297 298 299 299 300 303 304 306 309 310 311 311 310 315 326 332 335 336 337 338 339 339 337 339 338 332 338 339 339 336 335 333 334 336 335 333 333 332 331 330 328 327 324 322 324 326 325 323 321 323 323 319 315 314 314 309 307 308 308 308 305
292 293 291 289 289 289 290 290 290 290 291 289 292 292 292 291 291 293 294 291 291 294 295 294 294 293 293 293 293 293 293 293 294 294 294 296 296 297 298 298 300 302 303 307 308 310 312 313 311 316 324 330 333 335 336 336 336 336 336 336 340 336 334 333 333 333 333 332 331 330 332 335 332 331 330 328 328 327 325 323 324 326 324 320 322 320 318 318 317 314 311 308 308 308 309 305 306
291 290 289 291 292 290 291 291 291 290 290 289 293 293 291 291 292 292 293 290 290 294 293 292 292 292 292 292 293 293 293 292 293 294 294 295 295 295 297 298 298 300 304 306 307 310 312 314 314 317 324 325 331 334 335 335 335 335 334 335 333 334 332 332 331 330 331 332 329 328 329 330 331 331 330 327 327 326 325 324 324 322 320 319 321 319 316 318 316 315 313 311 309 309 308 303 305
290 292 290 289 288 289 290 289 289 289 292 288 292 290 290 290 292 292 292 290 293 293 292 291 291 291 292 292 292 293 293 293 293 293 292 292 293 294 295 296 297 299 302 303 306 310 312 314 316 315 320 325 327 331 331 333 333 332 332 335 335 333 331 334 332 330 328 329 328 328 326 328 327 329 329 327 327 326 323 324 323 321 319 318 318 317 315 315 315 311 309 307 307 309 308 305 303
290 290 293 288 289 293 290 290 289 290 292 288 290 291 291 288 290 292 291 290 293 292 291 291 290 290 291 291 292 292 292 293 293 292 292 293 294 294 294 296 297 297 301 302 306 309 311 313 315 318 323 324 327 329 330 331 331 332 332 331 329 329 327 326 324 324 323 322 323 322 322 322 322 324 322 321 320 324 323 321 320 319 319 317 317 316 314 312 312 311 307 306 306 307 309 308 305
290 289 288 291 288 290 291 289 289 291 292 287 291 289 288 289 290 290 292 290 292 292 291 290 290 290 290 291 291 292 292 292 292 292 292 293 293 294 294 296 297 297 298 302 305 308 310 313 315 317 319 320 321 323 323 324 322 319 318 319 317 318 318 317 317 317 317 317 317 317 318 318 318 318 319 317 317 317 316 315 315 314 313 312 313 313 313 313 312 311 307 309 306 307 307 303 305
293 289 285 286 286 287 289 289 288 293 291 288 292 290 289 288 290 291 292 289 292 290 290 290 289 289 290 290 290 291 291 292 291 292 292 293 293 294 294 295 296 297 298 300 303 306 309 312 315 316 317 318 318 318 317 316 316 316 315 314 314 314 314 314 314 313 314 314 314 314 314 315 316 317 317 316 315 315 314 313 312 311 310 310 309 309 310 310 309 306 306 308 305 305 302 301 301
283 289 286 281 286 286 287 291 288 291 291 288 292 287 290 290 289 291 291 290 290 289 289 289 288 289 289 289 290 290 290 291 291 291 292 292 293 293 294 294 295 296 296 297 301 306 308 309 314 316 317 316 316 315 315 314 313 312 311 309 310 310 310 310 310 310 311 311 311 311 311 311 313 313 314 315 313 313 312 311 310 310 310 309 309 308 308 308 307 304 302 304 306 306 304 304 301
280 287 285 284 283 284 287 290 286 289 289 290 291 289 285 289 287 290 291 290 289 288 288 288 288 288 289 289 289 289 289 290 290 290 291 291 292 293 293 294 294 295 296 297 298 303 306 307 309 313 315 315 314 313 312 310 309 307 306 306 305 305 305 306 306 307 307 307 307 307 308 308 310 311 311 311 310 309 309 308 308 309 310 309 308 307 307 307 307 306 302 300 303 303 303 303 303
285 282 285 282 285 284 286 287 289 288 289 290 289 289 287 290 287 290 290 289 288 288 287 288 288 288 288 288 288 288 288 288 288 289 290 290 291 292 293 294 294 295 296 296 297 299 300 304 305 306 311 312 311 310 308 306 305 304 303 302 301 300 300 300 301 302 302 302 303 303 305 305 306 307 308 308 307 307 308 307 307 307 308 308 305 305 304 305 305 306 304 301 301 302 302 301 301
281 284 284 285 282 283 286 285 289 290 288 289 287 288 289 291 290 288 289 289 288 287 288 287 287 288 288 288 287 287 287 287 288 289 289 290 290 291 292 293 294 294 295 296 296 298 299 300 301 301 304 307 307 307 306 305 303 302 301 300 299 298 297 297 298 297 297 298 298 300 301 302 303 304 305 305 304 304 305 305 305 306 306 306 305 303 303 302 302 302 303 303 300 300 300 298 297
285 283 283 282 285 284 284 287 287 289 289 289 286 290 291 291 290 288 289 288 287 287 288 287 287 287 287 287 287 287 287 287 288 289 289 289 290 290 291 292 293 293 294 295 296 296 297 299 299 299 300 302 305 305 303 300 300 299 298 298 297 296 295 294 294 295 295 295 295 296 297 298 299 300 301 302 302 302 301 302 302 304 305 304 302 300 300 300 299 300 299 300 300 299 295 295 295
285 284 284 283 284 285 285 285 287 287 288 287 289 288 286 288 288 287 288 288 288 287 286 286 286 286 286 286 286 286 287 286 289 289 289 289 289 289 290 291 291 292 293 293 294 294 295 296 298 297 299 300 301 301 300 300 298 296 295 294 293 294 293 292 291 291 291 292 292 293 294 294 295 296 298 299 299 299 299 300 300 300 301 300 299 298 298 298 298 298 297 297 297 299 298 296 296
287 286 285 284 283 285 287 288 287 286 288 284 284 286 287 288 286 286 287 287 286 286 286 286 286 285 286 285 285 286 286 288 288 288 288 288 288 289 289 290 290 290 291 292 292 293 294 294 295 296 297 297 298 299 299 298 297 296 294 292 291 290 290 289 289 289 289 290 290 290 291 292 293 294 295 296 297 297 296 296 297 297 298 298 297 297 296 296 297 297 297 298 298 296 295 295 295
285 285 284 284 284 284 286 286 286 286 287 286 284 286 288 287 285 286 286 285 286 286 286 286 285 284 284 285 285 285 285 286 286 286 287 287 287 288 288 288 289 289 290 290 291 292 293 293 294 294 295 296 296 296 296 296 296 296 294 292 290 288 289 289 289 289 289 289 289 289 289 290 290 291 292 293 294 294 295 295 295 295 296 296 296 295 295 295 295 295 296 295 296 297 296 296 295
284 284 284 284 284 286 284 286 285 287 286 285 284 285 288 285 285 285 286 286 285 285 285 285 285 284 283 284 284 284 284 284 285 285 285 286 286 287 287 287 287 288 288 289 290 290 291 292 292 293 293 294 295 295 294 294 293 292 292 291 290 289 288 289 289 289 288 288 287 288 289 289 289 289 290 290 290 291 292 292 293 293 293 294 295 294 294 294 294 294 295 295 296 295 294 295 296
283 285 284 284 285 285 286 286 285 284 286 283 285 285 285 283 285 284 285 286 285 285 285 285 285 285 285 285 285 285 283 284 284 284 285 285 285 285 285 286 287 286 287 287 288 289 289 290 291 291 291 291 292 293 293 293 292 291 290 290 290 289 289 288 288 287 287 287 287 287 287 288 288 288 289 289 289 289 290 290 290 290 291 291 292 292 292 292 293 293 294 294 294 293 293 293 295
282 283 286 287 286 286 284 284 286 284 283 284 285 282 280 281 281 283 284 284 284 284 283 283 284 284 284 284 284 284 285 284 283 283 284 284 284 285 285 285 285 285 285 286 287 288 288 289 289 290 290 290 290 290 291 291 291 290 290 289 286 285 284 285 284 284 285 285 285 287 287 288 288 288 288 288 288 288 288 288 289 289 289 289 289 290 290 291 291 292 292 293 293 293 294 293 293
284 286 285 288 286 285 285 284 286 281 281 285 283 282 277 282 283 283 283 283 283 283 283 283 283 284 283 283 283 283 283 284 284 284 284 284 284 284 284 284 285 285 285 286 286 286 287 288 288 288 288 288 289 289 290 289 288 287 286 286 286 285 284 284 285 286 286 286 287 286 287 287 287 287 287 288 288 288 288 288 288 288 288 288 288 288 288 288 289 290 291 292 291 292 293 292 291
283 284 283 285 285 285 284 284 285 282 282 283 283 284 279 279 286 283 283 282 282 282 283 283 283 283 283 283 283 283 283 283 283 283 283 283 283 283 283 283 284 284 284 285 285 286 286 286 287 287 287 287 288 288 288 288 287 287 286 286 286 285 285 284 285 285 286 286 286 286 286 286 287 287 287 287 287 287 287 287 287 287 287 287 287 287 287 288 288 289 289 290 290 291 291 290 290
283 285 283 284 285 284 283 284 283 281 283 281 280 284 282 278 282 281 282 282 281 282 282 283 283 283 283 283 283 283 283 283 283 283 282 283 283 283 283 283 283 284 284 284 284 285 286 286 286 286 286 286 287 288 287 288 288 287 286 286 285 286 286 286 286 286 286 286 285 286 286 286 286 287 287 287 287 287 287 287 287 286 286 286 286 287 287 287 287 287 287 288 288 288 289 290 290
285 283 283 282 282 282 282 281 283 280 280 275 280 283 279 279 281 282 283 282 282 282 283 283 283 283 283 282 283 283 283 283 283 282 282 282 283 283 283 283 283 283 284 285 284 285 285 286 286 285 285 286 287 287 287 287 287 287 286 286 285 285 285 286 286 286 286 286 285 285 286 286 286 286 286 287 287 287 286 287 286 286 286 286 286 286 286 286 287 287 287 287 287 287 288 288 288
284 284 285 283 281 280 279 279 278 277 273 278 281 281 283 279 282 284 283 284 284 283 282 283 283 283 283 282 283 283 282 282 282 282 282 282 282 282 282 282 283 283 284 284 284 284 285 285 285 285 285 286 286 286 286 286 287 287 286 286 286 285 286 286 285 285 285 286 285 285 285 286 286 286 286 286 287 287 287 287 286 286 286 286 285 285 285 285 286 286 286 286 286 286 286 287 287
285 286 281 285 282 279 276 270 275 273 272 275 278 280 282 277 280 281 282 282 282 285 283 282 282 282 283 283 282 282 282 282 282 281 281 281 282 282 282 282 282 283 283 284 284 284 285 285 285 284 285 285 286 286 286 286 286 286 286 286 285 286 286 285 285 284 285 285 285 285 285 285 285 285 285 285 285 286 286 286 286 286 285 285 285 285 285 285 285 286 286 285 286 286 286 286 286
284 283 285 278 274 270 273 269 274 273 274 279 279 279 280 281 283 285 283 282 282 282 284 284 283 283 283 283 282 282 282 282 282 281 281 281 281 281 281 281 282 283 283 283 283 284 284 285 285 284 284 285 285 286 286 286 286 286 286 286 286 286 286 285 285 285 285 285 285 284 284 284 284 284 284 284 284 285 285 284 284 284 284 284 285 285 284 285 285 285 285 285 285 285 285 285 284
283 285 280 276 271 264 265 266 265 269 274 278 281 280 279 281 284 284 283 282 282 282 282 284 285 284 283 283 283 282 282 282 282 282 281 281 281 281 281 281 282 282 282 283 284 284 284 284 284 284 284 284 285 285 285 285 285 285 286 286 286 286 285 285 285 285 285 285 285 284 284 284 283 283 283 283 284 284 284 284 284 283 284 284 284 283 283 283 284 283 284 283 283 284 284 284 284
284 283 284 281 273 265 269 266 274 275 273 277 277 275 272 278 283 279 281 281 281 281 281 283 285 284 284 283 282 282 282 281 282 281 281 281 281 281 282 282 282 282 282 283 283 283 284 284 284 284 284 284 284 284 285 285 285 285 285 286 286 286 286 285 285 285 284 284 284 283 283 283 283 283 283 283 283 283 283 283 283 282 282 282 282 282 282 282 282 282 282 282 282 283 283 283 283
281 281 283 280 281 279 277 270 267 266 271 271 273 277 279 283 280 280 280 280 280 281 281 282 283 282 282 282 282 281 281 281 281 281 281 281 281 281 282 282 282 282 282 283 283 283 284 284 284 284 284 284 285 284 284 284 284 285 285 285 285 285 285 285 284 284 283 283 283 283 282 282 282 282 283 282 282 282 282 281 282 281 282 282 281 281 281 281 281 281 281 281 281 283 281 282 282
283 283 279 281 283 281 272 269 269 270 269 274 271 278 281 282 281 279 279 280 280 281 281 282 282 282 281 281 281 281 281 281 281 281 281 281 281 281 282 282 282 282 282 283 283 283 284 284 284 284 284 284 284 284 284 284 284 284 284 284 284 284 283 283 282 282 282 283 282 282 282 282 282 282 281 281 281 281 281 281 280 280 280 280 280 280 280 280 280 280 280 280 280 281 281 281 281
284 278 283 283 284 282 280 276 269 266 270 274 273 278 280 280 279 280 280 280 280 280 280 281 281 281 281 282 281 281 282 282 281 281 281 281 281 282 282 282 282 282 282 282 283 283 283 284 284 283 283 283 283 284 284 284 283 283 283 283 283 283 283 282 282 282 282 281 281 281 281 281 280 280 280 280 280 279 279 279 279 279 279 279 278 278 278 278 279 278 279 279 279 280 279 279 279
283 282 284 287 278 279 278 274 272 269 268 270 271 275 276 280 282 280 281 280 282 280 280 280 280 280 281 282 282 281 282 281 281 281 281 281 281 282 282 282 282 282 282 282 283 283 283 283 284 284 284 284 284 284 284 284 284 283 283 282 282 282 282 282 282 281 280 280 279 280 280 279 279 279 278 278 278 277 277 277 278 277 277 277 277 277 277 277 277 277 277 277 278 278 277 277 278
286 286 285 285 283 279 276 279 274 273 270 266 273 271 275 280 283 283 285 283 283 280 279 280 281 282 282 282 282 282 281 281 281 281 281 281 281 282 282 282 282 282 282 283 283 283 283 283 284 284 284 284 284 284 284 283 283 282 281 281 281 281 281 280 280 279 278 278 278 278 278 278 277 277 277 276 276 276 276 275 276 276 275 276 275 276 276 276 276 276 276 276 276 276 276 276 276
283 284 282 284 279 284 282 279 276 277 266 268 269 275 273 278 281 283 285 285 283 282 281 282 282 283 283 284 283 283 282 282 282 281 281 281 281 282 282 282 282 283 283 283 283 283 283 284 283 283 283 283 282 282 282 281 281 280 279 279 279 279 278 278 278 278 277 277 277 277 277 277 276 275 275 275 275 275 274 275 274 275 274 274 274 274 274 274 274 274 274 275 274 274 274 274 275
287 286 283 286 282 281 279 279 279 273 276 275 267 276 278 281 280 282 282 281 284 283 283 283 282 283 284 284 284 284 282 282 282 282 281 281 281 282 282 282 282 283 283 283 283 283 283 283 282 282 282 282 282 282 281 280 280 279 278 278 278 278 277 277 276 277 276 276 275 275 275 275 274 274 274 274 274 274 273 274 274 273 273 273 273 273 273 273 272 272 272 273 273 273 273 273 273
Wind_Speed
6 5 3 1 3 2 1 6 2 2 4 1 1 1 0 1 2 4 3 4 0 1 3 2 2 1 1 1 1 3 3 3 5 4 1 2 1 3 5 9 5 2 9 7 7 8 10 10 10 11 12 12 12 12 12 13 14 13 13 13 12 11 11 11 11 11 11 11 10 10 10 9 9 9 8 9 8 8 9 10 10 10 11 11 11 11 12 13 14 14 13 13 12 12 12 12 11
3 4 4 1 1 1 0 1 4 3 6 3 1 1 1 4 2 3 0 2 1 0 1 2 2 2 2 2 2 0 2 7 7 1 5 4 4 4 6 9 6 6 9 7 7 7 9 10 10 11 12 12 11 13 13 14 14 13 13 13 12 12 11 11 11 11 11 11 10 10 9 9 9 8 8 8 8 8 9 9 9 10 10 9 10 11 11 14 12 12 12 11 12 11 11 11 10
3 5 1 3 2 4 3 3 1 1 5 3 2 5 2 1 2 3 7 4 2 1 5 1 1 2 1 1 1 2 0 1 3 3 4 3 1 3 1 7 6 6 8 6 7 8 9 9 10 11 12 12 12 13 13 13 14 13 13 12 12 12 11 11 11 11 10 10 10 10 9 9 9 9 8 8 8 8 9 9 9 9 10 10 10 10 11 12 12 11 11 11 11 11 11 10 9
3 5 1 2 2 3 1 4 5 5 5 3 1 2 2 1 3 5 6 8 7 4 1 1 0 1 1 2 1 1 4 2 5 3 1 2 1 5 1 6 4 4 4 5 6 7 9 8 10 11 11 11 12 13 13 12 13 13 12 12 12 11 11 11 11 11 10 10 10 10 9 10 9 9 8 8 8 8 9 10 9 8 9 9 10 9 10 11 11 11 10 11 11 10 10 9 9
2 2 2 3 4 2 3 1 5 3 3 5 3 4 6 5 6 5 5 3 6 3 0 1 1 1 1 0 1 0 0 2 2 2 2 2 2 4 2 4 5 5 6 7 5 7 8 9 9 11 11 11 13 12 11 11 12 12 10 10 11 11 10 10 11 11 11 10 10 9 10 10 10 10 9 8 8 9 10 10 10 9 8 9 9 9 9 9 9 10 10 10 10 10 10 9 9
5 2 4 1 1 3 4 2 4 2 2 6 2 0 2 4 4 2 9 8 1 2 0 1 0 0 0 1 3 0 3 2 0 3 2 1 5 3 3 4 6 5 6 7 5 7 8 9 8 10 11 11 14 11 11 11 12 11 10 10 10 11 10 10 10 10 10 11 11 11 11 10 10 10 10 9 8 9 10 11 8 7 8 9 9 8 9 10 8 9 9 10 10 10 9 9 8
1 3 5 3 3 4 4 4 3 3 1 5 1 2 2 3 6 3 7 3 1 2 1 1 1 0 1 3 2 6 3 0 0 1 4 4 6 1 3 5 6 6 6 6 6 6 8 7 8 9 9 10 12 11 11 10 12 11 10 11 11 10 10 10 10 10 10 10 10 10 10 10 11 11 10 10 9 10 10 10 11 11 12 11 11 10 8 8 9 9 8 9 10 9 9 8 8
2 1 2 3 2 4 3 2 2 3 1 6 1 3 5 5 1 1 2 2 3 2 1 2 1 1 1 1 1 1 3 5 3 5 7 5 2 4 5 5 7 6 6 4 4 5 5 6 7 7 8 9 9 10 11 10 11 10 9 10 11 10 10 10 10 10 9 9 9 9 9 10 10 11 11 10 10 11 10 10 10 11 11 10 9 10 10 9 8 9 9 9 9 9 9 8 8
6 7 1 4 4 4 3 2 1 4 7 3 6 6 6 6 3 0 1 1 2 1 4 1 1 3 1 5 2 4 5 2 4 6 5 3 2 4 4 5 6 6 6 5 4 3 5 4 6 7 6 8 8 9 11 12 12 11 10 9 10 10 10 9 9 8 8 8 9 8 8 9 10 10 11 11 11 12 11 10 10 10 10 9 9 9 8 8 8 8 9 9 9 9 8 8 8
2 2 1 3 4 3 2 1 2 2 2 2 3 4 3 1 1 1 1 1 1 2 1 1 1 1 1 2 5 2 2 5 7 2 6 3 1 4 4 3 2 7 6 7 5 5 4 5 6 6 6 5 8 8 11 11 11 10 10 9 9 9 9 9 8 7 7 7 6 6 8 9 10 11 10 10 10 10 11 10 10 10 9 8 8 8 7 7 8 7 9 9 8 8 8 7 7
2 5 3 3 4 2 2 2 4 4 3 6 6 8 8 3 2 0 2 2 2 1 5 3 1 1 0 2 3 3 5 6 9 6 7 5 1 3 3 2 3 5 6 7 7 6 6 6 7 7 6 6 6 7 9 9 10 10 10 9 8 8 8 8 7 7 6 5 4 6 7 8 10 10 10 10 10 9 9 9 9 9 8 7 7 6 6 6 7 8 8 8 8 7 7 7 6
1 3 3 3 2 3 3 2 3 6 8 3 1 1 1 4 2 0 1 3 2 3 2 2 1 3 0 3 0 2 8 11 6 5 6 4 1 2 3 1 3 4 4 6 6 7 7 7 6 6 7 6 6 7 7 8 10 10 9 9 8 7 7 8 6 6 5 4 3 5 7 8 9 9 10 10 8 7 7 8 9 8 7 6 6 5 6 10 10 8 8 8 7 7 7 7 6
5 1 6 6 2 1 2 0 2 3 4 1 0 1 2 2 1 2 1 2 1 3 2 5 0 1 1 0 2 6 7 7 7 5 5 3 1 1 2 2 2 3 3 2 6 6 6 6 7 7 6 6 5 7 7 7 8 8 9 9 8 7 7 7 6 5 5 4 3 4 5 5 5 7 8 8 6 7 7 6 8 8 8 6 7 8 9 10 9 9 8 7 7 7 7 7 6
4 4 3 1 2 3 3 0 1 2 1 1 3 4 1 1 1 2 5 1 2 1 1 1 1 2 0 2 5 3 3 4 9 7 4 2 1 2 3 3 3 2 2 2 4 4 4 5 4 6 6 5 6 4 5 7 8 8 9 9 8 8 7 7 6 6 5 4 4 4 4 5 6 7 8 8 7 7 7 7 7 8 8 9 10 10 10 10 9 8 8 7 7 7 7 7 7
1 2 6 6 2 0 3 1 2 4 2 0 0 2 5 2 2 3 0 2 2 3 3 2 1 1 3 2 5 2 2 8 9 8 5 3 5 6 6 6 6 5 4 2 0 2 5 4 4 5 6 6 7 5 4 5 8 8 9 9 8 7 7 7 6 5 4 4 5 4 6 4 7 7 9 7 7 7 7 7 6 8 9 10 11 11 11 9 8 7 7 7 7 8 8 9 7
5 5 4 2 0 2 1 2 1 2 1 2 1 2 1 1 1 1 1 1 3 1 2 1 0 2 0 1 1 4 9 10 9 6 5 7 7 5 6 6 5 4 3 3 2 1 1 4 4 5 5 6 5 6 6 5 6 8 9 8 9 7 7 7 7 7 5 5 5 6 6 5 4 3 6 6 7 8 7 4 5 7 7 10 10 12 11 9 6 6 6 7 8 9 9 9 10
2 3 2 4 0 1 1 2 5 1 2 3 5 4 4 1 1 3 0 0 3 3 4 3 1 2 2 1 4 7 9 8 6 7 9 8 8 7 6 7 6 3 4 3 2 2 2 3 6 5 6 8 6 5 5 5 5 7 7 8 9 9 8 8 9 8 6 5 4 4 5 5 4 3 5 4 8 8 8 7 7 8 7 8 9 11 10 9 6 5 6 8 9 9 8 8 8
2 3 4 1 1 2 6 4 9 1 0 2 5 1 1 4 3 0 1 2 2 5 4 8 3 4 1 1 7 6 7 11 10 11 9 8 7 8 7 7 6 6 5 4 3 3 3 4 6 7 6 8 7 5 4 4 5 6 6 6 6 6 6 5 4 3 5 4 5 3 3 4 3 3 3 3 3 7 8 9 7 7 8 7 10 9 9 9 5 5 6 9 9 9 8 4 3
5 2 2 2 6 1 7 4 7 1 3 2 2 1 1 2 0 2 4 4 4 7 2 2 5 6 7 11 14 14 11 13 12 11 11 11 8 8 6 6 8 8 7 7 5 5 4 4 5 7 8 8 8 7 5 4 5 6 5 4 5 6 5 5 5 5 4 6 5 4 4 4 4 4 3 3 5 5 6 11 9 8 8 9 7 7 8 9 6 5 7 9 9 8 4 3 2
1 3 0 2 8 3 7 4 1 6 1 3 4 0 0 2 1 1 2 7 6 4 7 4 1 3 5 8 10 11 11 11 12 12 11 10 9 8 8 9 8 7 7 6 8 6 5 5 6 7 7 8 8 6 5 5 5 4 6 7 4 5 7 6 5 5 5 5 5 4 3 3 5 4 4 3 4 6 6 9 11 9 9 8 7 4 7 9 7 7 10 8 4 2 2 2 2
1 2 2 1 4 0 1 8 7 5 2 2 1 0 3 3 5 0 2 6 6 1 4 2 5 7 7 6 9 10 11 11 11 11 12 10 8 6 6 6 7 8 6 8 5 7 7 7 6 8 7 7 9 7 6 6 5 5 3 3 8 7 4 4 5 5 5 5 5 5 5 4 5 4 4 3 3 3 3 1 7 5 4 5 4 4 5 5 5 4 4 3 2 2 3 2 2
3 1 1 5 3 1 3 7 3 3 3 2 0 3 3 1 1 2 2 3 7 3 2 4 3 6 6 8 8 9 9 11 12 12 12 10 10 10 9 8 5 4 6 6 8 8 8 7 7 6 7 7 6 7 5 4 6 5 7 7 1 3 3 5 7 8 6 5 6 5 5 5 5 5 5 5 5 4 6 0 1 6 5 3 1 4 2 5 4 3 3 3 1 2 2 2 2
1 1 1 4 3 1 1 3 4 3 1 1 2 2 2 1 2 2 3 4 2 6 5 7 7 5 6 6 7 9 11 11 11 12 11 12 11 10 9 7 8 9 7 7 8 8 7 7 7 7 8 8 7 5 3 4 4 6 4 4 6 4 1 1 3 4 6 8 6 6 5 5 4 6 6 4 2 3 5 6 3 5 5 2 0 4 4 4 4 4 4 3 2 2 2 2 2
3 2 0 1 7 4 3 1 6 2 3 5 2 1 2 1 6 0 1 3 6 5 7 7 7 7 6 10 9 9 9 9 9 8 7 7 8 9 8 9 8 6 8 10 10 9 9 10 7 7 7 7 7 6 5 4 4 4 8 8 5 5 7 7 1 0 3 5 6 7 8 6 6 6 5 7 6 2 3 6 4 4 5 3 3 4 4 3 3 3 3 3 2 1 2 2 2
2 2 1 1 2 6 4 4 5 3 8 5 1 3 4 3 2 1 2 3 5 5 5 7 6 9 10 12 11 9 11 11 11 9 7 7 7 7 6 5 7 8 9 11 11 9 10 8 7 4 6 6 5 5 6 4 4 4 3 4 3 1 4 3 1 4 3 3 2 5 8 6 6 5 6 5 4 5 4 2 4 5 6 4 2 2 3 3 3 2 3 3 1 1 1 1 1
3 2 1 1 3 4 4 4 7 7 4 2 0 7 2 1 3 1 0 5 4 4 9 8 9 13 12 10 9 10 10 11 9 11 10 7 7 11 14 12 10 11 10 9 8 9 9 9 5 3 5 5 4 5 4 4 4 4 2 1 5 5 2 3 3 3 2 1 3 2 4 4 7 6 6 5 4 5 6 6 3 3 1 3 2 4 4 5 5 3 3 3 2 1 1 1 1
3 2 3 2 4 3 4 4 2 0 3 3 2 6 0 1 1 1 0 5 2 9 9 9 9 9 7 7 7 8 10 11 10 7 8 10 10 11 11 10 12 11 10 11 9 9 8 9 6 2 2 1 1 5 4 4 4 4 3 4 3 1 5 5 4 2 1 3 3 4 2 3 4 5 5 5 4 4 4 4 4 3 4 3 3 4 2 2 3 2 3 3 2 2 1 1 1
3 0 1 4 6 4 7 3 6 1 2 3 5 5 1 1 1 2 2 6 3 8 8 8 8 6 4 5 7 7 8 8 8 9 14 14 11 11 12 11 13 11 11 12 9 8 8 10 7 3 3 3 2 5 6 5 4 5 4 3 2 5 5 4 4 4 3 3 4 3 4 2 3 1 3 6 6 5 4 4 3 3 3 3 2 3 3 3 3 4 4 4 3 2 2 1 1
0 1 5 5 8 6 4 2 2 0 1 1 6 2 1 2 4 1 6 4 5 10 9 8 8 6 7 7 8 9 9 9 9 11 11 8 8 8 10 10 10 10 8 9 10 10 10 8 7 5 5 5 4 6 6 6 5 4 5 6 6 7 9 11 11 10 8 9 7 8 7 6 6 6 6 6 5 5 4 5 7 6 5 3 3 4 4 3 3 3 3 2 2 2 1 1 1
0 3 2 8 7 7 3 0 3 1 1 1 1 4 3 2 3 5 9 4 3 11 9 7 6 7 7 8 7 8 9 10 11 10 8 8 8 8 9 11 10 8 7 8 10 11 9 6 6 6 7 8 8 9 8 10 10 10 12 11 12 12 10 9 10 9 11 10 10 10 8 9 8 7 7 6 6 7 7 7 6 6 5 5 6 5 4 3 3 4 4 3 4 3 3 3 3
1 0 3 1 5 5 2 1 4 1 0 1 0 3 7 2 0 8 9 5 4 6 6 6 6 7 7 7 7 7 8 8 8 9 10 9 8 7 9 10 10 10 8 10 11 10 10 10 7 7 10 10 12 13 12 12 12 12 11 11 10 11 9 9 9 9 10 9 10 10 11 9 9 8 7 7 7 6 7 7 7 5 5 6 6 5 4 4 5 6 3 4 2 3 3 3 3
3 2 4 3 2 5 9 1 1 1 2 4 2 0 8 3 2 8 7 5 9 9 5 6 6 6 7 6 7 7 7 7 8 10 10 9 9 9 9 10 10 10 10 8 10 10 11 12 10 11 12 13 13 13 14 14 13 13 12 11 11 12 11 10 10 10 8 9 9 10 11 11 10 10 9 8 8 7 7 6 5 4 6 6 5 5 5 4 3 4 4 5 3 2 2 2 1
5 2 4 3 1 5 8 1 2 0 1 4 2 5 4 1 4 5 6 6 8 9 6 6 6 6 6 6 6 6 7 9 9 10 12 9 8 8 8 9 10 9 9 10 9 10 13 13 12 13 13 13 14 14 15 15 13 13 12 12 11 13 12 9 10 9 9 10 8 9 9 11 11 10 10 9 8 8 8 7 6 6 6 6 6 5 5 3 3 3 3 3 3 1 1 0 0
3 2 4 3 2 2 3 5 1 4 1 2 4 1 5 3 5 6 7 4 7 8 5 5 4 4 5 5 6 7 7 7 9 10 11 10 8 9 8 7 9 9 8 9 9 8 8 10 11 11 11 12 12 13 12 11 12 14 12 10 14 14 12 9 10 10 11 10 9 8 10 9 11 10 10 9 9 9 8 8 7 7 6 6 7 5 4 4 4 3 3 2 2 1 2 3 3
3 3 0 5 1 4 7 1 1 2 2 1 1 2 9 12 2 7 5 4 8 7 4 4 4 5 5 6 6 6 6 7 8 7 8 8 9 8 7 7 8 9 7 9 8 7 7 7 7 10 10 11 11 12 12 12 13 13 11 11 14 13 12 11 10 11 10 9 10 9 9 10 12 11 10 9 9 8 9 8 8 9 8 6 6 7 8 7 7 4 3 3 2 2 2 2 3
4 7 5 4 3 3 4 6 2 1 4 5 4 8 9 9 5 5 5 5 8 5 4 4 4 4 5 5 5 5 5 6 5 6 7 7 7 8 7 6 6 7 7 8 9 10 8 8 7 8 8 6 7 8 9 10 10 9 9 9 13 12 10 11 10 10 9 10 11 11 11 10 9 9 9 10 10 10 7 7 8 7 7 6 7 10 9 7 6 7 7 5 4 3 2 3 2
3 3 2 4 5 6 4 3 5 0 1 7 9 6 5 10 6 4 2 2 6 5 5 4 4 5 5 5 5 4 5 5 5 5 6 7 8 7 6 6 7 7 9 8 9 10 10 7 11 12 6 6 7 7 7 7 10 9 11 12 10 8 8 7 9 10 11 10 11 10 10 9 10 10 9 8 9 9 8 8 8 8 7 8 9 8 6 7 7 5 2 3 5 5 5 5 4
2 2 3 5 3 9 4 2 2 2 2 4 1 1 7 9 4 4 3 2 4 2 3 3 4 4 4 4 5 5 3 2 6 7 8 7 7 9 7 7 8 11 10 9 10 9 8 8 10 6 5 8 8 7 9 9 7 8 11 8 9 7 7 8 10 10 10 9 10 9 10 11 12 11 9 9 10 10 10 9 9 8 7 8 8 6 7 7 7 7 6 6 4 5 5 6 6
1 3 2 2 8 4 8 3 2 1 3 7 2 3 9 6 1 4 4 4 2 2 1 1 3 4 3 3 4 4 4 4 5 5 6 7 8 9 7 7 8 8 7 8 6 8 9 9 8 8 8 9 8 6 8 9 8 7 10 8 8 10 9 9 10 9 8 10 11 11 11 10 10 9 10 10 9 10 9 8 8 8 9 7 7 9 9 11 9 10 9 5 4 4 4 4 7
4 2 2 9 3 0 6 1 2 1 1 2 1 5 9 1 3 4 3 2 3 3 4 5 3 4 3 3 3 3 4 4 6 6 6 7 7 7 7 8 8 7 6 6 7 9 7 8 8 8 8 8 8 8 11 10 12 11 11 10 10 10 9 8 10 8 8 12 13 10 11 10 11 11 11 11 10 10 10 10 8 8 8 7 7 8 10 10 9 8 7 7 4 7 6 6 6
3 5 5 6 4 5 8 4 1 1 1 1 2 5 7 1 3 1 2 2 4 3 5 5 4 4 2 2 4 4 4 4 4 5 7 7 8 9 8 7 6 7 6 7 7 7 5 7 7 8 7 7 6 7 8 7 8 9 7 8 8 8 7 7 9 10 10 9 9 11 10 9 10 10 10 10 9 9 9 8 8 8 9 9 8 9 8 7 7 7 7 8 8 5 6 5 7
2 6 12 8 5 7 5 2 3 6 3 2 1 4 3 2 5 5 4 1 2 2 5 3 3 4 3 4 4 3 4 3 3 4 4 5 6 7 8 8 8 6 7 7 7 7 6 6 7 8 8 7 7 7 6 5 6 6 5 6 8 9 10 9 10 8 8 9 9 7 9 10 10 10 10 10 10 9 10 10 10 10 10 9 8 8 7 8 10 10 8 6 8 7 4 6 6
1 6 8 11 8 4 2 2 3 1 1 1 2 2 5 6 5 5 4 3 2 2 2 1 1 2 3 3 3 3 3 3 4 4 4 6 7 7 7 7 6 6 7 6 7 8 7 7 7 8 7 7 7 7 6 7 9 9 11 10 9 8 10 7 5 5 6 6 6 9 8 9 9 10 10 10 10 9 9 9 9 10 9 9 8 8 9 9 8 8 7 8 7 6 6 7 7
4 1 3 4 4 6 5 5 6 3 1 3 1 1 3 5 9 3 4 5 2 1 2 2 2 2 2 2 2 2 2 2 2 3 4 4 4 4 4 4 4 5 5 6 7 7 8 7 8 8 7 8 7 7 9 8 10 9 10 11 9 8 8 8 6 6 6 6 8 8 7 9 9 9 9 10 10 10 9 9 9 9 9 9 8 8 8 7 6 7 7 6 6 7 7 6 6
3 1 4 6 7 6 5 6 4 1 1 6 3 1 1 4 6 2 2 3 3 6 6 6 5 4 4 3 2 2 1 1 2 4 4 3 3 3 3 4 4 5 6 7 7 7 6 7 8 9 9 8 8 10 9 9 9 9 9 8 11 7 7 7 5 5 7 6 10 7 8 8 8 9 9 9 9 9 9 9 9 9 9 8 7 7 7 7 8 8 8 8 8 7 6 5 5
1 5 7 7 7 6 5 5 5 1 1 5 6 4 3 6 5 2 1 4 7 9 11 8 7 7 6 5 4 3 2 2 2 2 1 2 1 2 2 2 5 5 5 5 6 6 7 7 9 11 10 8 7 9 9 10 9 7 10 9 12 8 6 6 6 7 7 6 9 8 7 8 7 8 8 9 9 8 8 8 8 9 8 8 8 8 7 8 7 7 6 6 6 7 5 6 6
7 4 7 5 7 4 3 5 3 3 2 7 6 1 3 4 5 7 4 5 5 5 3 4 5 6 6 6 6 5 5 4 3 3 1 1 1 2 3 4 4 5 5 5 6 6 6 7 9 12 9 7 8 9 10 10 8 7 8 9 10 10 8 7 8 8 7 8 8 8 7 7 7 8 7 8 8 7 7 7 7 7 6 6 7 7 7 6 6 5 5 5 7 8 7 6 5
5 2 4 4 2 5 3 3 4 1 6 4 1 3 2 7 6 4 7 1 4 10 11 12 11 11 9 8 6 6 6 5 4 4 4 4 4 4 3 5 5 5 5 6 6 6 7 7 9 12 9 8 8 8 10 9 8 9 9 9 10 8 8 7 9 9 7 8 7 8 6 7 7 7 7 7 8 8 7 8 7 7 7 7 7 6 6 6 5 5 5 5 5 5 5 5 6
2 5 6 6 3 4 2 2 2 5 4 0 2 3 1 7 8 3 3 7 3 5 6 13 13 12 11 9 8 7 5 6 6 5 5 5 5 6 5 5 5 5 6 5 6 6 7 8 9 12 10 8 8 8 10 9 9 8 8 8 9 7 8 9 8 8 6 7 6 7 7 7 6 7 8 8 9 10 8 8 9 8 8 8 7 7 7 6 5 5 6 6 6 7 7 6 6
4 7 6 5 1 1 3 5 2 6 4 3 1 1 3 3 9 4 7 5 3 3 5 6 11 14 13 11 9 7 6 6 6 6 5 6 6 5 5 5 5 5 5 6 6 6 7 8 8 12 9 7 8 9 9 10 10 8 8 7 7 7 8 7 7 8 6 6 6 7 7 6 7 7 7 7 7 7 7 7 7 8 8 8 8 8 8 8 7 6 6 7 7 6 6 6 5
8 2 7 7 7 6 4 5 4 3 2 2 4 1 5 5 5 3 2 4 5 5 5 5 6 6 6 7 7 7 6 6 6 6 6 7 6 6 6 5 5 5 5 5 6 6 7 8 8 11 11 7 8 9 9 10 8 8 7 7 7 6 7 7 7 6 6 7 6 7 7 6 7 6 6 6 6 7 7 7 7 7 7 7 7 7 6 7 7 6 6 6 6 6 6 5 5
0 3 5 5 6 5 2 3 3 1 2 2 1 5 4 5 1 3 2 2 2 3 4 6 8 6 7 7 8 8 7 7 7 7 6 6 6 5 5 5 5 5 6 5 6 6 7 8 8 9 10 8 8 9 8 8 8 7 7 8 7 7 6 7 7 6 6 6 6 7 7 7 6 5 5 6 7 6 6 6 6 7 7 6 7 7 6 6 6 5 5 5 6 5 6 7 6
4 5 5 5 2 8 6 1 1 1 2 8 3 5 5 2 1 1 2 1 2 2 3 6 8 8 8 8 8 8 8 8 8 7 7 7 6 5 5 5 5 5 5 6 6 6 8 8 9 9 8 7 7 8 8 8 8 8 8 7 7 7 7 8 7 7 7 6 6 6 7 7 6 7 6 6 6 6 5 5 5 5 5 5 6 6 7 7 6 6 6 6 6 6 6 6 6
9 2 7 1 1 3 4 3 1 3 3 7 3 8 3 4 6 1 0 3 4 4 5 6 7 8 10 10 10 10 10 9 8 7 7 7 6 7 6 5 6 6 6 7 7 6 6 6 8 10 9 10 7 8 8 7 8 8 7 7 7 6 6 7 6 7 6 7 7 6 6 6 7 5 4 4 4 5 5 5 5 5 6 6 7 6 7 6 5 4 5 4 5 5 5 4 4
3 2 3 4 2 1 2 3 3 1 4 6 5 2 5 7 6 2 7 8 10 8 7 8 10 11 13 11 11 10 9 8 9 9 8 7 7 7 7 7 6 6 6 6 6 6 6 6 6 8 10 8 8 7 7 7 6 5 5 6 7 6 6 7 7 7 7 8 7 6 6 6 6 6 5 5 5 5 5 5 6 6 6 6 7 7 7 6 6 5 6 5 5 6 6 6 5
2 2 3 1 1 1 4 5 3 5 5 3 6 4 7 8 6 14 12 15 11 10 9 13 17 16 14 13 13 14 13 11 10 10 9 9 8 8 8 8 8 8 8 7 6 5 7 6 7 7 6 7 8 8 7 8 6 6 6 6 6 6 6 7 7 6 7 7 7 6 5 5 5 4 4 4 4 5 5 6 5 6 6 6 6 6 6 6 6 5 6 6 7 8 8 7 7
1 1 1 0 1 1 3 1 3 2 3 3 3 10 2 6 5 9 11 13 15 17 17 15 13 13 14 15 16 15 14 12 11 10 10 10 9 8 7 7 6 5 5 5 6 7 7 6 7 7 9 8 8 7 8 7 6 6 7 7 6 6 7 6 7 7 7 6 5 5 5 4 3 4 4 4 5 5 6 6 6 6 6 6 7 7 7 6 6 6 6 6 7 8 8 7 7
7 10 9 10 6 3 2 7 4 1 2 6 3 13 1 3 2 5 3 3 11 16 14 14 13 15 17 15 15 12 12 12 11 10 10 9 8 8 7 6 5 6 6 7 6 6 6 7 6 7 7 7 9 7 7 6 5 5 7 7 7 6 6 6 7 6 7 6 5 5 4 4 5 5 5 6 6 5 6 6 6 6 7 7 7 8 8 7 7 7 7 5 6 8 8 7 7
Wind_Direction
346 345 342 80 60 99 59 3 159 341 58 33 323 24 85 29 277 342 263 337 352 244 199 314 195 162 260 222 195 201 209 115 208 104 77 240 194 227 202 204 240 229 172 166 173 176 180 183 174 171 171 170 169 163 156 154 153 149 148 146 147 146 147 153 147 146 144 139 136 134 131 128 125 121 117 112 111 105 103 103 104 106 99 96 88 82 80 79 70 65 61 57 54 49 44 39 35
355 343 42 15 30 46 240 160 95 348 45 81 201 99 256 294 3 219 240 194 198 154 260 226 292 299 47 50 173 296 245 232 175 221 277 233 298 258 208 198 205 186 170 165 169 176 176 181 176 174 170 170 168 162 157 160 156 152 151 150 151 148 151 156 151 150 145 142 138 135 134 131 128 125 124 116 111 109 105 105 108 104 102 90 85 80 77 72 67 63 59 56 53 49 46 42 37
8 16 33 39 32 68 97 25 235 13 87 75 278 206 341 298 235 254 229 217 235 295 311 327 152 300 49 331 355 133 19 276 297 273 246 306 332 12 201 184 192 187 171 164 164 174 178 180 176 176 170 170 168 164 161 162 159 156 155 154 153 153 153 160 156 153 149 143 142 140 138 140 136 132 129 121 116 112 105 108 106 104 96 87 84 80 72 70 68 63 59 56 53 48 43 40 39
97 32 122 69 239 26 53 31 82 125 108 174 325 288 195 195 254 234 255 255 276 319 302 225 110 215 148 5 255 47 290 334 195 162 289 22 328 311 329 175 169 166 157 168 170 172 178 179 177 174 174 169 169 167 166 163 161 158 156 157 156 155 155 164 160 158 151 149 145 145 145 147 142 139 134 129 121 115 108 106 107 103 99 94 89 85 83 78 70 63 60 58 54 48 42 39 39
68 11 64 115 114 358 102 96 127 97 121 205 111 264 260 222 262 285 278 277 287 198 84 159 127 299 185 235 146 117 92 251 308 182 263 255 291 271 216 165 145 157 165 172 168 174 181 175 180 175 174 170 172 167 166 162 164 162 158 159 160 157 158 166 164 160 156 153 148 152 154 156 153 145 140 136 125 118 112 110 112 107 102 93 83 82 82 72 60 65 60 53 49 49 45 39 37
65 32 6 81 64 165 65 70 62 71 221 157 105 302 232 231 225 280 295 312 283 183 196 58 36 338 328 262 190 243 211 37 192 263 193 253 327 345 164 150 148 152 165 174 172 177 182 180 182 178 177 173 177 168 167 164 166 162 162 162 164 161 165 169 167 166 161 158 162 166 170 162 153 147 142 136 129 120 109 110 117 118 96 76 66 57 69 76 79 67 52 46 45 45 44 40 39
298 49 358 36 47 48 150 116 146 165 155 168 193 244 252 280 227 350 323 7 234 101 4 317 37 101 63 319 323 241 199 358 286 265 173 310 311 196 153 144 147 154 162 171 178 176 183 180 186 184 177 178 180 168 169 166 171 166 166 168 165 166 168 173 172 170 167 170 171 172 166 157 151 146 143 138 131 124 117 109 107 101 87 79 68 66 65 71 70 67 48 48 44 44 42 41 42
86 133 323 100 354 46 46 152 162 182 32 186 262 242 266 249 133 150 286 65 342 70 348 266 304 117 283 59 17 282 334 204 262 306 289 292 282 151 158 150 151 159 164 164 172 179 178 185 189 190 184 180 182 170 169 170 173 166 168 172 171 172 171 181 178 174 176 181 182 175 164 154 150 147 144 142 136 129 123 112 106 101 95 86 81 78 74 72 66 65 66 53 48 48 45 42 44
10 84 262 70 50 26 66 70 282 250 285 273 265 228 277 275 215 147 358 260 293 168 310 314 276 33 254 341 194 273 298 269 294 298 317 316 166 152 153 154 159 156 164 167 167 162 181 189 194 196 195 187 186 174 175 176 176 168 168 176 174 177 178 186 186 180 184 192 191 175 167 156 154 150 150 148 142 138 129 119 112 106 101 94 89 84 80 76 70 67 61 53 49 48 44 43 48
45 37 333 108 137 46 13 286 93 171 241 244 266 279 252 245 243 201 232 43 258 317 237 285 225 327 316 300 318 15 356 341 309 15 13 4 98 137 144 132 161 158 158 174 171 174 177 183 194 201 202 201 189 188 186 180 180 169 170 179 175 180 179 186 186 183 190 201 196 181 168 161 160 158 155 151 145 141 135 130 124 116 107 104 97 90 87 85 85 74 66 58 50 46 43 42 50
15 17 140 75 31 98 138 230 268 315 272 321 292 248 240 198 190 233 186 255 330 219 314 163 83 251 106 273 225 257 316 1 30 13 344 345 13 134 143 54 130 161 167 174 181 180 189 186 189 199 201 206 194 189 194 183 185 176 174 180 177 178 182 182 183 187 195 200 196 178 176 173 166 164 159 151 148 147 141 133 127 116 107 104 97 87 93 112 93 85 71 60 55 47 41 42 48
24 22 6 102 121 146 222 147 275 284 300 325 113 322 197 156 148 45 343 6 328 314 212 156 352 155 24 326 255 326 327 25 4 310 322 338 62 22 135 52 124 159 170 176 179 184 192 196 190 195 201 200 199 190 189 195 195 176 175 180 180 177 180 182 180 188 193 198 182 175 189 182 168 164 159 155 152 146 138 138 124 115 109 101 100 87 77 82 97 84 78 68 57 46 36 38 46
104 106 73 76 159 141 151 153 245 291 334 311 45 72 139 131 208 181 234 209 310 358 26 211 184 114 300 274 272 320 33 348 342 326 329 342 350 324 58 74 71 128 149 146 183 194 193 201 204 200 198 197 200 193 182 187 198 190 175 181 179 178 180 183 181 190 193 181 164 179 171 170 171 158 155 155 144 142 144 146 125 120 107 96 91 87 89 99 94 91 82 72 60 47 36 37 41
112 181 123 140 19 128 146 261 336 137 291 208 264 294 260 213 235 196 126 52 319 54 259 178 135 165 257 29 324 343 293 322 333 341 322 347 345 35 56 26 53 60 62 145 208 211 214 213 216 211 203 204 203 196 189 185 182 192 181 178 179 178 182 183 185 187 186 172 144 166 162 152 162 152 150 153 150 149 152 136 131 124 110 103 96 92 93 96 94 91 87 79 66 54 38 32 37
109 169 84 113 51 91 247 92 173 135 126 134 318 3 344 274 107 94 130 127 315 210 293 199 216 98 243 88 294 288 316 334 330 326 333 0 33 38 31 34 39 30 28 29 45 225 227 226 225 222 217 210 208 197 194 189 186 178 185 186 185 183 182 185 181 180 170 147 132 142 164 172 146 160 153 150 148 154 141 139 132 128 122 109 103 100 99 94 92 87 86 83 74 63 47 30 32
138 90 78 105 82 130 222 155 262 101 216 192 312 199 81 324 161 72 274 170 275 281 17 258 127 240 146 148 271 335 319 323 315 325 354 20 8 44 41 39 37 44 32 14 354 313 270 226 222 220 217 217 210 205 202 193 187 182 173 183 183 189 183 185 177 172 152 135 128 141 144 144 126 127 151 156 152 136 130 114 119 101 113 115 114 107 104 99 95 91 87 80 79 68 51 38 26
73 80 53 33 29 191 227 165 149 152 250 274 301 36 41 283 314 243 236 50 266 282 359 246 222 9 200 63 357 319 329 318 347 20 26 17 5 6 1 17 355 27 28 16 330 324 289 235 224 219 215 218 218 201 197 195 176 181 180 177 184 193 202 188 176 164 144 125 125 127 139 146 140 166 172 188 151 142 132 129 125 121 117 110 108 99 106 109 101 99 89 88 83 74 62 48 33
52 58 112 44 205 126 195 174 191 202 92 292 339 98 56 338 338 319 111 27 43 302 302 297 306 254 13 298 12 358 355 19 14 46 30 26 14 4 1 353 5 350 336 333 329 295 295 247 232 222 217 214 211 203 187 190 169 172 195 168 176 187 192 196 221 152 150 154 130 139 161 154 151 148 142 171 160 140 140 147 138 128 117 111 107 119 115 110 127 110 100 96 87 79 71 66 45
81 141 75 250 189 242 156 199 201 127 284 243 263 320 165 248 113 311 356 292 355 330 308 338 315 317 3 17 2 9 3 28 29 42 45 33 19 16 359 342 348 344 344 343 329 336 285 264 237 229 220 215 213 200 184 176 174 172 191 177 169 181 170 171 175 178 194 174 170 175 168 165 150 157 149 203 152 152 143 138 120 115 117 117 119 126 130 123 128 122 111 100 90 81 75 78 73
232 112 235 258 207 252 225 186 213 198 123 303 320 50 111 241 134 302 321 292 323 325 307 340 337 275 3 348 2 359 19 29 37 38 41 34 23 13 1 352 342 338 326 324 314 305 296 261 251 232 225 214 213 212 192 175 167 166 182 193 199 199 188 182 201 195 194 182 177 167 157 167 143 146 141 160 148 151 143 138 126 124 127 129 128 137 113 126 123 108 106 96 88 72 80 67 74
235 82 163 223 184 106 216 191 238 223 175 255 209 323 330 284 216 49 209 342 311 273 238 228 292 330 356 2 8 9 16 24 27 33 32 24 19 22 5 346 332 320 316 309 306 317 319 296 254 245 225 215 210 213 199 197 171 162 188 225 195 178 185 175 186 185 194 176 165 170 167 164 147 145 127 122 114 82 47 310 134 136 139 122 187 104 117 120 107 101 82 71 87 98 84 64 61
118 200 193 156 142 310 235 201 194 170 218 180 282 339 270 135 85 197 161 246 284 331 333 306 348 50 47 10 10 19 18 25 23 26 25 22 10 358 352 343 326 297 315 327 327 314 312 307 282 242 224 218 207 209 202 175 171 188 192 219 159 181 185 220 203 186 170 182 170 171 165 171 163 145 158 162 148 132 121 35 220 137 124 177 263 94 93 111 102 105 98 94 93 85 82 81 57
223 322 203 212 198 224 241 178 214 154 133 169 286 238 11 91 281 227 173 210 285 11 350 59 63 69 77 61 33 22 20 23 20 19 11 10 2 357 354 343 342 338 338 330 324 322 311 306 293 252 226 198 207 190 195 170 193 166 152 171 202 206 231 39 226 159 175 170 175 171 167 171 157 171 169 181 152 169 151 145 184 129 146 140 250 110 144 148 131 115 123 108 104 101 96 77 74
114 221 10 269 179 216 194 243 134 195 152 251 194 27 276 323 321 143 112 272 45 28 47 61 69 62 52 53 36 39 32 26 18 13 9 4 353 347 344 341 337 323 347 347 343 331 328 322 306 282 228 204 187 183 186 181 169 184 175 193 208 191 214 238 65 110 199 204 185 184 178 168 176 176 177 180 163 130 186 163 155 147 132 161 174 166 128 113 122 107 90 88 110 84 98 78 80
129 290 227 227 158 244 290 278 284 233 245 272 111 275 256 161 211 105 307 45 44 41 43 44 49 53 45 46 33 27 31 22 16 4 6 5 355 339 344 342 348 354 357 354 342 337 332 323 314 279 240 214 168 169 179 166 152 153 153 177 226 281 249 250 176 139 171 235 338 214 181 177 176 170 178 182 141 161 135 143 161 153 175 165 126 124 106 84 70 118 137 114 78 90 78 65 24
171 211 160 314 265 305 275 304 263 256 267 153 37 254 309 247 142 89 254 43 66 74 49 31 40 43 35 33 28 30 31 27 11 13 5 348 352 3 7 358 355 3 353 339 334 339 337 332 322 265 217 215 174 157 152 141 142 135 121 169 199 136 111 71 87 53 7 313 174 126 287 210 176 174 166 173 167 158 152 164 184 188 75 88 152 101 119 151 157 128 106 113 128 112 95 61 17
156 193 200 239 270 351 287 203 279 62 243 170 235 289 216 272 159 266 42 23 89 60 53 39 48 58 43 37 34 29 33 25 16 351 9 11 12 12 357 353 1 353 345 352 345 346 334 349 358 343 162 358 161 145 138 122 120 101 97 106 35 335 123 97 79 73 13 29 36 356 140 260 213 159 154 161 168 143 160 146 160 159 133 132 127 121 111 101 110 130 123 119 149 141 112 85 42
53 158 300 288 315 256 254 297 292 278 294 175 200 253 61 294 84 141 341 19 48 83 56 48 52 54 48 50 50 39 40 25 16 18 21 10 5 355 352 359 349 346 353 349 344 337 346 5 18 25 97 76 31 119 120 109 76 87 67 42 74 62 27 33 55 27 42 54 10 46 28 349 17 353 172 169 157 149 167 154 142 135 125 126 74 105 102 110 129 117 102 113 106 114 109 83 46
153 52 325 299 339 340 343 346 342 321 276 159 164 295 327 359 140 300 334 57 56 66 47 30 31 30 30 31 37 36 31 21 19 29 18 8 354 355 351 352 347 339 345 339 342 357 4 356 14 30 86 81 75 89 105 110 106 83 99 71 42 29 44 38 35 39 46 35 33 31 33 46 43 46 38 21 14 47 64 48 39 27 32 51 73 85 102 97 99 98 86 89 98 100 75 58 32
184 30 67 324 356 329 331 355 355 354 258 75 255 307 285 65 136 331 326 339 9 47 26 20 19 19 22 27 31 34 28 23 26 23 10 3 0 357 356 350 348 349 338 349 349 9 3 2 12 34 50 59 50 56 47 52 44 51 45 43 46 45 49 51 40 37 43 37 36 33 38 40 48 41 51 50 48 56 56 55 50 46 43 50 46 34 39 24 36 43 37 31 30 24 25 20 0
230 255 62 301 359 280 284 75 319 30 14 341 80 220 282 258 288 342 336 336 116 73 32 22 20 22 24 22 28 31 29 30 24 16 11 6 2 359 358 350 354 356 354 7 10 1 12 19 23 45 47 59 59 60 66 68 61 62 60 57 55 57 51 55 51 49 45 50 46 39 36 35 45 50 54 66 60 66 62 59 58 58 63 64 63 52 66 55 62 66 56 42 35 37 30 35 17
23 21 297 325 154 279 300 339 20 157 1 28 107 79 255 167 216 353 342 34 88 83 54 31 26 28 27 24 28 26 23 21 21 19 13 4 6 1 360 354 351 0 6 351 14 21 30 29 30 51 58 65 70 72 71 73 70 70 67 61 64 60 56 51 53 44 41 45 49 51 41 41 40 48 47 54 65 58 66 64 57 69 80 78 71 74 75 71 68 88 89 95 49 30 20 37 56
357 153 270 273 24 268 330 14 33 54 54 9 126 241 328 345 216 350 10 51 80 94 60 44 35 33 32 35 31 25 18 14 17 14 7 1 359 2 357 354 359 1 4 8 11 32 45 35 34 47 55 65 72 76 78 75 75 69 66 63 63 63 58 54 55 48 50 46 38 49 42 49 39 44 54 49 66 58 58 57 45 43 53 74 73 51 55 47 61 68 69 45 108 164 144 291 102
277 29 214 207 196 265 275 307 32 12 103 191 6 212 237 221 148 14 23 51 89 80 74 58 57 47 42 39 37 31 32 20 17 2 356 357 352 359 355 354 2 6 10 10 15 29 37 42 46 42 53 60 68 72 73 78 76 73 66 63 62 60 51 48 53 49 48 48 41 43 40 45 48 35 46 49 61 60 57 59 48 39 40 48 61 64 53 43 49 31 62 64 53 22 13 360 350
195 153 216 284 275 217 255 308 256 356 25 51 322 258 272 277 104 31 23 27 88 86 86 74 59 51 43 42 37 32 32 31 11 356 350 348 357 357 356 352 5 15 14 13 19 20 32 34 33 39 45 58 65 68 74 77 76 78 77 67 60 57 55 45 38 47 40 37 37 34 39 45 45 42 37 46 55 53 50 50 52 44 48 48 53 56 47 33 37 10 25 46 44 36 16 14 346
192 165 177 169 212 222 212 238 278 148 283 288 286 261 273 282 286 21 21 31 82 98 82 65 53 50 49 46 35 37 30 29 357 350 348 353 1 358 353 351 9 20 21 17 33 34 33 38 39 42 27 27 58 69 71 69 66 64 69 64 60 51 50 51 47 52 47 46 36 34 36 40 41 40 36 46 55 55 48 45 52 43 50 61 54 48 42 33 25 22 25 14 16 43 46 13 347
112 110 124 208 217 277 281 265 255 342 357 236 245 261 257 266 284 312 315 26 63 58 61 59 46 51 49 41 41 27 37 20 327 338 356 359 1 359 355 2 9 24 27 17 37 39 40 39 63 54 29 31 59 71 58 61 73 77 58 58 69 64 57 55 56 53 51 44 41 39 43 47 45 41 29 30 45 56 52 45 40 38 36 47 50 48 40 38 29 26 352 13 21 28 38 1 351
184 187 200 265 172 252 246 254 23 303 162 298 81 350 268 258 307 337 342 70 42 29 74 59 62 64 52 54 41 25 354 319 0 13 4 4 5 5 6 16 11 27 12 10 34 34 42 40 56 56 45 52 46 57 83 73 66 68 87 75 82 66 53 54 59 50 51 51 47 41 46 45 46 43 34 39 45 47 49 46 43 41 41 53 63 61 57 54 42 38 23 39 32 30 43 5 349
98 204 217 282 256 258 285 284 353 297 138 263 20 298 272 272 341 20 46 66 61 18 86 80 105 65 61 47 44 33 31 20 12 14 4 8 5 10 18 16 18 21 7 15 14 40 40 46 48 54 49 58 52 54 73 80 76 73 87 94 90 86 62 65 69 65 59 62 51 44 44 44 47 48 44 45 49 46 52 55 47 44 44 43 53 48 40 42 36 37 34 37 30 38 56 30 19
189 145 162 236 204 66 294 301 6 34 140 271 19 315 282 350 62 55 20 81 101 62 68 63 57 86 75 63 48 42 41 17 23 6 3 2 9 16 19 20 11 11 11 8 18 37 41 43 44 54 55 57 65 63 78 79 84 84 79 88 80 78 86 80 79 68 59 53 47 43 43 42 44 48 41 42 48 45 43 49 48 48 49 41 48 50 41 38 32 31 29 35 29 43 24 26 30
238 192 213 242 202 221 196 248 297 321 34 68 271 296 289 252 204 198 49 73 81 29 49 50 37 40 44 76 59 42 44 24 19 11 9 10 16 18 15 10 6 22 10 14 20 31 42 44 50 58 61 57 59 64 81 96 103 91 95 87 83 88 71 63 63 49 46 54 56 41 37 36 42 48 46 47 50 52 49 47 48 45 44 36 39 47 47 41 38 36 26 37 36 37 39 19 22
297 224 209 222 199 225 251 341 356 5 335 348 85 322 308 295 263 214 201 291 47 358 73 37 35 27 29 45 40 34 37 31 34 15 7 6 20 8 18 13 21 11 14 8 15 30 43 53 60 65 67 58 55 54 58 79 69 85 87 77 69 63 58 43 47 54 48 45 55 57 47 41 42 46 43 45 47 47 49 45 45 46 41 37 37 44 40 35 31 30 23 28 34 24 52 41 24
134 268 203 216 213 196 171 148 101 274 184 346 38 167 265 330 316 211 174 167 63 21 43 65 26 30 39 45 28 30 24 26 24 28 16 32 17 28 20 20 1 17 9 6 24 31 40 54 63 65 68 68 62 68 73 88 83 79 78 80 84 79 93 69 70 60 68 67 67 58 56 48 42 47 45 44 44 46 51 48 48 49 47 43 35 38 37 32 29 28 19 36 31 24 24 55 36
234 246 146 157 157 183 201 156 177 220 256 297 44 129 209 319 291 57 152 157 154 128 260 246 207 203 98 67 38 41 46 25 45 38 40 31 32 24 34 356 357 7 4 24 44 38 47 52 64 67 67 68 62 73 71 68 86 85 90 88 81 83 77 95 81 76 69 69 65 54 53 49 43 40 42 41 40 41 43 47 45 47 49 44 41 44 40 27 30 29 32 33 39 37 33 49 45
220 214 142 154 170 181 140 149 167 201 61 282 315 219 285 250 263 22 142 218 239 240 226 212 197 201 188 173 168 138 182 29 50 83 60 35 26 20 15 29 0 26 21 39 41 45 49 60 67 69 65 66 61 63 73 68 76 87 89 97 92 78 87 88 86 71 71 62 70 56 54 49 47 42 38 38 36 39 40 43 42 45 45 41 39 41 38 33 34 29 23 28 30 34 34 29 47
246 121 90 82 77 70 119 110 125 315 106 258 252 186 217 273 273 318 21 244 265 216 207 191 197 190 188 185 184 176 150 85 73 47 31 19 335 2 346 26 44 28 30 44 51 59 61 69 72 67 61 58 64 70 74 75 74 83 89 87 96 99 95 93 81 71 64 54 65 58 55 54 49 47 41 36 35 32 36 37 42 44 43 40 38 36 30 30 26 28 28 30 26 39 32 33 43
127 112 76 35 39 38 36 64 88 72 251 239 225 259 175 293 253 215 148 221 203 121 92 156 201 207 206 197 181 171 161 149 144 160 102 320 331 3 33 66 57 54 42 59 67 65 72 78 83 74 64 69 69 74 78 76 77 73 84 88 92 99 95 92 85 70 66 58 61 55 53 56 55 52 46 42 36 28 33 37 43 47 46 43 42 33 29 21 16 16 18 25 31 27 22 19 33
122 127 127 86 5 10 30 341 29 153 266 264 253 202 146 172 283 272 231 281 183 164 171 177 189 196 192 186 188 183 171 164 166 161 166 126 95 76 68 89 77 72 69 69 71 72 78 81 89 87 72 71 71 80 84 81 83 80 80 82 83 81 86 83 80 79 68 70 63 64 58 58 52 52 48 44 36 27 29 37 38 42 43 38 40 34 30 23 12 11 18 24 30 26 18 18 16
87 86 84 122 241 38 300 13 249 214 210 245 344 139 82 240 231 171 189 202 204 217 188 181 180 184 185 185 185 179 173 174 180 178 164 171 150 143 132 127 104 95 96 91 88 89 89 87 89 94 79 73 76 80 84 85 83 79 82 84 84 84 78 78 78 77 65 69 66 64 56 55 46 45 37 40 32 27 29 30 30 31 31 32 32 31 25 19 12 15 21 21 21 26 16 5 14
124 160 148 105 101 59 255 270 271 310 287 273 309 155 279 257 287 221 182 204 196 216 230 202 187 180 181 180 172 173 181 186 186 181 182 173 169 162 159 141 131 128 111 106 104 99 101 98 97 94 92 79 86 85 85 87 79 78 75 80 82 83 80 78 75 78 71 68 69 69 64 60 60 54 45 43 30 29 35 33 33 34 33 32 32 29 24 21 14 17 17 18 16 21 8 4 2
200 109 149 179 143 157 223 186 216 228 196 280 283 59 231 138 235 342 254 275 282 257 232 220 204 193 169 156 155 165 178 193 189 188 191 183 181 175 165 156 150 142 135 119 115 110 107 104 106 104 105 92 92 90 90 87 85 79 76 76 79 83 88 83 77 73 74 77 72 77 69 63 61 54 50 42 36 38 36 33 33 35 31 32 29 28 22 19 17 16 20 15 11 14 2 2 360
45 165 85 98 228 144 224 199 157 215 338 335 218 215 191 188 177 288 302 312 321 330 213 184 184 168 150 158 173 177 182 194 194 194 196 199 191 184 169 163 163 154 145 139 127 129 119 118 115 110 111 114 100 96 86 90 87 84 79 80 76 78 82 84 84 77 73 72 76 76 75 68 61 57 53 45 37 39 34 30 31 34 30 31 29 27 21 19 14 15 16 13 10 6 1 359 357
203 111 194 208 133 102 99 77 67 72 52 252 157 300 294 308 333 35 327 51 309 343 174 174 174 171 168 181 180 185 194 196 194 191 192 192 192 192 183 176 172 172 162 155 152 145 138 134 129 118 110 102 98 93 95 91 91 89 79 79 83 85 85 86 89 84 79 73 72 68 70 66 57 47 41 38 34 33 30 32 30 34 31 28 29 27 22 16 12 11 13 4 2 1 359 353 345
99 180 230 166 151 124 131 225 22 64 206 271 109 213 226 102 262 65 11 254 254 244 184 190 178 171 186 193 189 194 197 196 192 194 192 191 187 183 186 191 191 184 174 163 157 157 147 141 136 127 124 118 116 111 104 102 99 93 94 86 79 82 88 87 84 82 71 69 60 58 60 60 53 47 47 40 36 34 31 27 30 28 28 27 26 21 20 11 8 9 4 2 350 349 344 340 337
147 196 202 121 212 184 315 84 280 244 262 273 285 306 266 189 229 107 238 211 219 202 195 181 191 193 198 195 199 201 201 194 192 195 192 191 192 191 187 189 193 193 188 177 162 156 146 138 133 127 127 125 125 115 107 98 97 98 91 86 84 79 74 76 74 74 72 71 65 59 60 61 53 42 39 35 31 30 27 22 28 24 21 23 20 17 12 9 4 3 360 356 356 356 348 343 344
53 79 70 325 113 155 125 194 177 113 269 43 286 108 247 199 219 186 207 202 190 170 188 207 203 195 188 193 196 196 199 195 190 192 191 189 192 191 186 185 189 188 185 185 172 153 154 149 133 121 108 109 110 111 112 105 99 98 93 86 73 74 72 78 78 82 78 76 74 71 71 70 63 54 50 47 46 41 29 28 26 27 22 22 17 13 9 6 359 6 357 353 352 353 350 347 342
79 99 232 114 4 226 101 22 130 184 193 201 286 296 270 252 218 182 200 190 182 177 194 203 198 195 198 198 197 197 193 190 192 190 186 185 186 188 190 192 195 191 183 174 172 167 162 148 137 138 132 127 116 116 110 108 109 102 101 97 100 92 90 90 93 89 89 85 83 77 70 75 74 57 45 40 38 33 26 26 25 25 23 15 13 7 6 360 0 357 356 350 348 350 346 340 338
175 165 191 177 138 137 168 254 67 97 161 247 142 265 192 267 138 230 239 226 181 199 188 185 187 193 198 201 203 195 192 194 188 185 182 182 181 183 189 192 192 179 182 181 184 161 155 153 143 134 128 130 130 129 123 125 114 114 111 109 102 99 101 100 95 88 82 79 69 62 63 62 60 44 40 34 32 25 23 20 22 21 18 15 11 6 360 358 354 350 347 350 343 342 336 331 333